Regional Weather Roundup
Issued by NWS

Home | Current Version | Previous Version | Graphics & Text | Print | Product List | Glossary On
Versions: 1 2 3 4 5 6 7 8 9 10 11 12 13 14 15 16 17 18 19 20 21 22 23 24 25 26 27 28 29 30 31 32 33 34 35 36 37 38 39 40 41 42 43 44 45 46 47 48 49 50
000
ASUS45 KSLC 230910
RWRUT

UTAH REGIONAL WEATHER ROUNDUP
NATIONAL WEATHER SERVICE SALT LAKE CITY UT
300 AM MDT SAT MAY 23 2015

UTZ001>011-023>025-231000-

NORTHERN UTAH

CITY           SKY/WX    TMP DP  RH WIND       PRES   REMARKS
BRIGHAM CITY   CLOUDY    51  47  85 SE3       29.93S
HILL AFB       LGT RAIN  48  48 100 NE7       29.93R
LOGAN          LGT RAIN  51  48  89 CALM      29.93S
OGDEN          LGT RAIN  50  48  93 NE9       29.92R
PROVO AIRPORT  CLOUDY    50  41  71 E15       29.95R
SALT LAKE CITY LGT RAIN  53  47  79 E6        29.92R
VERNAL         CLOUDY    46  42  86 CALM      29.96F
WENDOVER       CLOUDY    55  45  67 CALM      29.90S
HEBER CITY     DRIZZLE   43  41  93 W3        29.96S
WEST JORDAN    CLOUDY    52  46  82 SE3       29.93S

$$

UTZ012>022-026-027-231000-

SOUTHERN/CENTRAL UTAH

CITY           SKY/WX    TMP DP  RH WIND       PRES   REMARKS
BLANDING       MOCLDY    45  30  55 SE3       30.08S
BRYCE CANYON   CLOUDY    36  33  89 SW5       30.00S WCI  32
CEDAR CITY     CLOUDY    44  40  85 CALM      29.97S
DELTA          CLOUDY    47  41  79 S3        29.95S
HANKSVILLE     MOCLDY    46  36  66 CALM      29.93S
MILFORD        CLOUDY    46  42  86 S12       29.94F
MOAB/CYNLANDS  CLEAR     53  39  59 SE6       29.91R
PRICE          LGT RAIN  46  39  76 CALM      29.95S
ST GEORGE      CLOUDY    55  41  58 E6        29.97S
KANAB          CLOUDY    43  43 100 S5        30.04F

$$

REGIONAL REPORTS     COLORADO/ARIZONA

CITY           SKY/WX    TMP DP  RH WIND       PRES   REMARKS
CRAIG, CO      PTCLDY    43  38  82 E12       30.02F
GRAND JUNCTION LGT RAIN  47  44  90 E8        29.96S
RIFLE          MOCLDY    45  42  89 E7        30.01S
MONTROSE       CLOUDY    49  36  61 S7        30.05R
CORTEZ         PTCLDY    40  36  86 CALM      30.03S
PAGE, AZ       MOCLDY    50  39  66 N5        29.97S
GRAND CANYON   MOCLDY    31  30  96 CALM      30.04S
KINGMAN        PTCLDY    47  39  74 SE10      29.97F
FLAGSTAFF      CLOUDY    34  31  88 CALM      30.05F

$$

REGIONAL REPORTS    NEVADA/IDAHO/WYOMING

CITY           SKY/WX    TMP DP  RH WIND       PRES   REMARKS
LAS VEGAS, NV  PTCLDY    62  41  46 SW8       29.87S
ELY            CLOUDY    43  41  93 SE5       29.98F
ELKO           CLOUDY    49  44  83 SW8       29.96S
POCATELLO, ID  LGT RAIN  53  49  86 NE7       29.91S
BURLEY         PTCLDY    46  44  93 SW3       29.89S
EVANSTON, WY   MOCLDY    41  37  86 E5        29.98F
ROCK SPRINGS   MOCLDY    40  36  86 SW3       29.99F
KEMMERER       DRIZZLE   39  37  93 S6        30.00S WCI  35

$$


USA.gov is the U.S. government's official web portal to all federal, state and local government web resources and services.